Regional Weather Roundup
Issued by NWS Burlington, VT

Home | Current Version | Previous Version | Text Only | Print | Product List | Glossary On
Versions: 1 2 3 4 5 6 7 8 9 10 11 12 13 14 15 16 17 18 19 20 21 22 23 24 25 26 27 28 29 30 31 32 33 34 35 36 37 38 39 40 41 42 43 44 45 46 47 48 49 50
000
ASUS41 KBTV 222030
RWRBTV
VERMONT REGIONAL WEATHER ROUNDUP
NATIONAL WEATHER SERVICE BURLINGTON VT
300 PM EST WED FEB 22 2017

NOTE: "FAIR" INDICATES FEW OR NO CLOUDS BELOW 12,000 FEET WITH NO
SIGNIFICANT WEATHER AND/OR OBSTRUCTIONS TO VISIBILITY.

* THESE REPORTS ARE NOT UNDER NWS QUALITY CONTROL AND/OR DO NOT
  REPORT WEATHER SUCH AS PRECIPITATION AND FOG.

VTZ001>019-222100-
_____VERMONT_____


CITY           SKY/WX    TMP DP  RH WIND       PRES   REMARKS
BURLINGTON     MOSUNNY   53  36  52 S7        29.86F
MONTPELIER     SUNNY     51  34  52 E3        29.90R
MORRISVILLE    CLOUDY    51  31  46 S3        29.87S
ST. JOHNSBURY*   N/A     50  32  50 MISG      29.86R
LYNDONVILLE*   FAIR      46  32  58 SE6       29.88F
MIDDLEBURY*    FAIR      54  27  35 S10       29.85F
RUTLAND*       MOSUNNY   54  39  57 SW6       29.88S
SPRINGFIELD    SUNNY     56  32  40 CALM      29.87F
HIGHGATE*      FAIR      44  32  62 N5        29.87F
NEWPORT*       FAIR      48  32  53 CALM      29.87R
BENNINGTON     SUNNY     57  34  41 CALM      29.87F
SUTTON*          N/A     45 N/A N/A MISG        N/A
MT. MANSFIELD*   N/A     39 N/A N/A SW6         N/A

_____LAKE CHAMPLAIN_____


CITY           SKY/WX    TMP DP  RH WIND       PRES   REMARKS
BURTON ISLAND*   N/A     46  34  61 N1          N/A
COLCHESTER RF*   N/A     46  34  61 S14         N/A
DIAMOND ISL*     N/A     50  34  53 SW6         N/A

$$

NYZ007-026>031-035-052-083-087-222100-
_____NORTHERN NEW YORK_____


CITY           SKY/WX    TMP DP  RH WIND       PRES   REMARKS
PLATTSBURGH    CLOUDY    49  32  52 SE6       29.86F
SARANAC LAKE   SUNNY     54  36  50 S3        29.80F
MASSENA        PTSUNNY   46  36  68 NE10      29.88R
OGDENSBURG*    CLOUDY    51  38  60 CALM      29.85F
POTSDAM*       SUNNY    N/A N/A N/A CALM      29.84F
WATERTOWN      CLOUDY    54  40  59 W6        29.83S
FT DRUM        PTSUNNY   57  41  54 NW5       29.81F
ALBANY         MOSUNNY   56  35  45 S8        29.88F
GLENS FALLS    SUNNY     55  37  50 SE9       29.87F

$$
NHZ002-005-011-222100-
_____NEW HAMPSHIRE_____


CITY           SKY/WX    TMP DP  RH WIND       PRES   REMARKS
LEBANON        SUNNY     56  35  45 CALM      29.86F
KEENE          SUNNY     58  39  49 SW9       29.87S
MT WASHINGTON  PTSUNNY   37   5  25 NW28        N/A  WCI  25
PLYMOUTH       FAIR      55  34  45 CALM      29.86S
WHITEFIELD     SUNNY     51  31  46 NW3       29.86F

$$

_____REGIONAL QUEBEC LOCATIONS_____


CITY           SKY/WX    TMP DP  RH WIND       PRES   REMARKS
MONTREAL       PTSUNNY   43  34  70 VRB2      29.88F
QUEBEC CITY    CLOUDY    37  30  75 SW6       29.88F
SHERBROOKE     PTSUNNY   45  32  61 S5        29.85F

_____REGIONAL ONTARIO LOCATIONS_____


CITY           SKY/WX    TMP DP  RH WIND       PRES   REMARKS
OTTAWA         CLOUDY    39  34  81 E8        29.86S

______KEY______
VSB  - VISIBILITY IN MILES
WCI  - WIND CHILL INDEX
HX   - HEAT INDEX
$$
NNNN



USA.gov is the U.S. government's official web portal to all federal, state and local government web resources and services.